Orbital Elements at Epoch 2459200.5 (2020-Dec-17.0) TDB
Reference: JPL 30 (heliocentric ecliptic J2000)
Element | Value | Uncertainty (1-sigma) | Units |
e | .08586138614955686 | 5.3772e-08 | |
a | 2.901596101793074 | 1.2001e-08 | au |
q | 2.65246103844697 | 1.5519e-07 | au |
i | 2.310396878765633 | 5.5064e-06 | deg |
node | 162.492633916686 | 8.1361e-05 | deg |
peri | 202.5882529316628 | 8.4265e-05 | deg |
M | 12.95909251301278 | 1.9772e-05 | deg |
tp | 2459135.513079914317 (2020-Oct-13.01307991) | 9.9215e-05 | TDB |
period | 1805.318636884006 4.94 | 1.12e-05 3.066e-08 | d yr |
n | .1994107813684141 | 1.2371e-09 | deg/d |
Q | 3.150731165139178 | 1.3031e-08 | au |
|
| | Orbit Determination Parameters
Additional Information
|